Cancun, Mexico

6:09 AM on April 26, 2017 (GMT +0000)
Cancun International

Weather History for MMUN - September, 2013

Change the Weather History Date:

Thursday, September 5, 2013

  Actual Average Record
Temperature  
Mean Temperature 80 °F -  
Max Temperature 86 °F 88 °F 100 °F (2001)
Min Temperature 75 °F 73 °F 69 °F (2000)
Cooling Degree Days 16    
Growing Degree Days 30 (Base 50)    
Moisture  
Dew Point 76 °F    
Average Humidity 84    
Maximum Humidity 94    
Minimum Humidity 74    
Precipitation  
Precipitation 0.00 in - - ()
Sea Level Pressure  
Sea Level Pressure 29.94 in    
Wind  
Wind Speed 5 mph ()    
Max Wind Speed 14 mph    
Max Gust Speed -    
Visibility 6.7 miles    
Events Rain    
Averages and records for this station are not official NWS values.
T = Trace of Precipitation, MM = Missing Value Source: Averaged Metar Reports

Daily Weather History Graph

Daily Weather History Graph

Search for Another Location

Airport or City:

Trip Planner

Search our weather history database for the weather conditions in past years. The results will help you decide how hot, cold, wet, or windy it might be!

Date:

Astronomy

Sep. 05, 2013 Rise Set
Actual Time 6:32 AM CDT 6:59 PM CDT
Civil Twilight 6:09 AM CDT 7:21 PM CDT
Nautical Twilight 5:43 AM CDT 7:48 PM CDT
Astronomical Twilight 5:17 AM CDT 8:14 PM CDT
Moon 6:35 AM CDT (9/5) 7:02 PM CDT (9/5)
Length of Visible Light 13h 12m
Length of Day
12h 27m
New Moon, 0% of the Moon is Illuminated
Sep 5
New Moon
Sep 12
First Quarter
Sep 19
Full
Sep 26
Last Quarter
Oct 4
New

Hourly Weather History & Observations

Time (CDT) Temp. Heat Index Dew Point Humidity Pressure Visibility Wind Dir Wind Speed Gust Speed Precip Events Conditions
12:41 AM 77.0 °F - 75.2 °F 94% 29.96 in 5.0 mi ESE 5.8 mph - N/A Rain Light Rain
1:43 AM 78.8 °F - 77.0 °F 94% 29.94 in 6.0 mi Calm Calm - N/A   Mostly Cloudy
2:42 AM 78.8 °F - 75.2 °F 89% 29.93 in 6.0 mi East 6.9 mph - N/A   Mostly Cloudy
3:43 AM 75.2 °F - 73.4 °F 94% 29.92 in 6.0 mi Calm Calm - N/A   Scattered Clouds
4:43 AM 77.0 °F - 75.2 °F 94% 29.93 in 6.0 mi East 2.3 mph - N/A   Clear
5:40 AM 77.0 °F - 75.2 °F 94% 29.93 in 6.0 mi East 4.6 mph - N/A   Scattered Clouds
6:42 AM 77.0 °F - 75.2 °F 94% 29.94 in 6.0 mi Calm Calm - N/A   Scattered Clouds
7:42 AM 80.6 °F 87.1 °F 77.0 °F 89% 29.96 in 7.0 mi East 3.5 mph - N/A   Scattered Clouds
8:40 AM 84.2 °F 94.1 °F 77.0 °F 79% 29.96 in 7.0 mi East 10.4 mph - N/A   Scattered Clouds
9:47 AM 84.2 °F 94.1 °F 77.0 °F 79% 29.97 in 7.0 mi East 8.1 mph - N/A   Mostly Cloudy
10:45 AM 86.0 °F 96.9 °F 77.0 °F 74% 29.98 in 7.0 mi ESE 12.7 mph - N/A   Mostly Cloudy
11:46 AM 86.0 °F 96.9 °F 77.0 °F 74% 29.98 in 7.0 mi East 9.2 mph - N/A   Mostly Cloudy
12:48 PM 86.0 °F 96.9 °F 77.0 °F 74% 29.96 in 7.0 mi ESE 11.5 mph - N/A   Mostly Cloudy
1:48 PM 86.0 °F 96.9 °F 77.0 °F 74% 29.95 in 7.0 mi East 8.1 mph - N/A   Scattered Clouds
2:42 PM 86.0 °F 96.9 °F 77.0 °F 74% 29.93 in 7.0 mi ENE 10.4 mph - N/A   Scattered Clouds
3:42 PM 86.0 °F 96.9 °F 77.0 °F 74% 29.91 in 7.0 mi East 13.8 mph - N/A   Scattered Clouds
4:43 PM 86.0 °F 96.9 °F 77.0 °F 74% 29.91 in 7.0 mi ESE 9.2 mph - N/A   Scattered Clouds
5:40 PM 86.0 °F 96.9 °F 77.0 °F 74% 29.92 in 7.0 mi East 8.1 mph - N/A   Scattered Clouds
6:40 PM 82.4 °F 90.9 °F 77.0 °F 84% 29.91 in 7.0 mi East 5.8 mph - N/A   Scattered Clouds
7:41 PM 82.4 °F 90.9 °F 77.0 °F 84% 29.94 in 7.0 mi Calm Calm - N/A   Scattered Clouds
8:41 PM 82.4 °F 90.9 °F 77.0 °F 84% 29.95 in 7.0 mi ENE 5.8 mph - N/A   Scattered Clouds
9:48 PM 80.6 °F 87.1 °F 77.0 °F 89% 29.95 in 7.0 mi ENE 4.6 mph - N/A   Scattered Clouds
10:47 PM 80.6 °F 87.1 °F 77.0 °F 89% 29.97 in 7.0 mi East 4.6 mph - N/A   Scattered Clouds
11:49 PM 80.6 °F 87.1 °F 77.0 °F 89% 29.97 in 7.0 mi East 5.8 mph - N/A   Scattered Clouds